owner,sensor,date,latitude,longitude,vertical_datum,wind_speed,wind_to_direction,wind_speed_of_gust,qcFlag 
TCOON,ioos:station:TCOON:006:1,2013-07-01T00:00:00Z,27.8217,-97.2040,0.0,2.8,323.0,4.0,'11111222,11111222,11111222' 
TCOON,ioos:station:TCOON:006:1,2013-07-01T01:00:00Z,27.8217,-97.2040,0.0,2.0,325.0,2.8,'11111222,11111222,11111222' 
TCOON,ioos:station:TCOON:006:1,2013-07-01T02:00:00Z,27.8217,-97.2040,0.0,1.9,307.0,2.4,'11111222,11111222,11111222' 
TCOON,ioos:station:TCOON:006:1,2013-07-01T03:00:00Z,27.8217,-97.2040,0.0,2.5,290.0,3.4,'11111222,11111222,11111222' 
TCOON,ioos:station:TCOON:006:1,2013-07-01T04:00:00Z,27.8217,-97.2040,0.0,2.1,298.0,3.1,'11111222,11111222,11111222' 
TCOON,ioos:station:TCOON:006:1,2013-07-01T05:00:00Z,27.8217,-97.2040,0.0,2.1,306.0,3.2,'11111222,11111222,11111222' 
TCOON,ioos:station:TCOON:006:1,2013-07-01T06:00:00Z,27.8217,-97.2040,0.0,1.5,285.0,2.0,'11111222,11111222,11111222' 
TCOON,ioos:station:TCOON:006:1,2013-07-01T07:00:00Z,27.8217,-97.2040,0.0,4.8,259.0,6.1,'11111222,11111222,11111222' 
TCOON,ioos:station:TCOON:006:1,2013-07-01T08:00:00Z,27.8217,-97.2040,0.0,2.6,278.0,3.1,'11111222,11111222,11111222' 
TCOON,ioos:station:TCOON:006:1,2013-07-01T09:00:00Z,27.8217,-97.2040,0.0,2.5,273.0,3.4,'11111222,11111222,11111222' 
TCOON,ioos:station:TCOON:006:1,2013-07-01T10:00:00Z,27.8217,-97.2040,0.0,1.9,294.0,3.0,'11111222,11111222,11111222' 
TCOON,ioos:station:TCOON:006:1,2013-07-01T11:00:00Z,27.8217,-97.2040,0.0,1.5,334.0,3.2,'11111222,11111222,11111222' 
TCOON,ioos:station:TCOON:006:1,2013-07-01T12:00:00Z,27.8217,-97.2040,0.0,1.4,335.0,3.0,'11111222,11111222,11111222' 
TCOON,ioos:station:TCOON:006:1,2013-07-01T13:00:00Z,27.8217,-97.2040,0.0,2.7,33.0,4.6,'11111222,11111222,11111222' 
TCOON,ioos:station:TCOON:006:1,2013-07-01T14:00:00Z,27.8217,-97.2040,0.0,4.8,44.0,7.1,'11111222,11111222,11111222' 
TCOON,ioos:station:TCOON:006:1,2013-07-01T15:00:00Z,27.8217,-97.2040,0.0,4.1,45.0,6.2,'11111222,11111222,11111222' 
TCOON,ioos:station:TCOON:006:1,2013-07-01T16:00:00Z,27.8217,-97.2040,0.0,4.6,49.0,7.8,'11111222,11111222,11111222' 
TCOON,ioos:station:TCOON:006:1,2013-07-01T17:00:00Z,27.8217,-97.2040,0.0,4.2,47.0,6.4,'11111222,11111222,11111222' 
TCOON,ioos:station:TCOON:006:1,2013-07-01T18:00:00Z,27.8217,-97.2040,0.0,4.4,82.0,5.7,'11111222,11111222,11111222' 
TCOON,ioos:station:TCOON:006:1,2013-07-01T19:00:00Z,27.8217,-97.2040,0.0,4.1,84.0,5.3,'11111222,11111222,11111222' 
TCOON,ioos:station:TCOON:006:1,2013-07-01T20:00:00Z,27.8217,-97.2040,0.0,2.7,99.0,5.0,'11111222,11111222,11111222' 
TCOON,ioos:station:TCOON:006:1,2013-07-01T21:00:00Z,27.8217,-97.2040,0.0,4.6,110.0,5.8,'11111222,11111222,11111222' 
TCOON,ioos:station:TCOON:006:1,2013-07-01T22:00:00Z,27.8217,-97.2040,0.0,3.0,124.0,4.2,'11111222,11111222,11111222' 
TCOON,ioos:station:TCOON:006:1,2013-07-01T23:00:00Z,27.8217,-97.2040,0.0,2.5,130.0,3.3,'11111222,11111222,11111222' 
TCOON,ioos:station:TCOON:006:1,2013-07-02T00:00:00Z,27.8217,-97.2040,0.0,2.0,103.0,2.9,'11111222,11111222,11111222' 
TCOON,ioos:station:TCOON:006:1,2013-07-02T01:00:00Z,27.8217,-97.2040,0.0,2.4,104.0,3.4,'11111222,11111222,11111222' 
TCOON,ioos:station:TCOON:006:1,2013-07-02T02:00:00Z,27.8217,-97.2040,0.0,1.4,70.0,2.2,'11111222,11111222,11111222' 
TCOON,ioos:station:TCOON:006:1,2013-07-02T03:00:00Z,27.8217,-97.2040,0.0,1.5,60.0,2.7,'11111222,11111222,11111222' 
TCOON,ioos:station:TCOON:006:1,2013-07-02T04:00:00Z,27.8217,-97.2040,0.0,1.4,49.0,2.1,'11111222,11111222,11111222' 
TCOON,ioos:station:TCOON:006:1,2013-07-02T05:00:00Z,27.8217,-97.2040,0.0,2.2,48.0,3.2,'11111222,11111222,11111222' 
TCOON,ioos:station:TCOON:006:1,2013-07-02T06:00:00Z,27.8217,-97.2040,0.0,1.8,68.0,2.6,'11111222,11111222,11111222' 
TCOON,ioos:station:TCOON:006:1,2013-07-02T07:00:00Z,27.8217,-97.2040,0.0,1.2,34.0,1.7,'11111222,11111222,11111222' 
TCOON,ioos:station:TCOON:006:1,2013-07-02T08:00:00Z,27.8217,-97.2040,0.0,1.2,345.0,1.7,'11111222,11111222,11111222' 
TCOON,ioos:station:TCOON:006:1,2013-07-02T09:00:00Z,27.8217,-97.2040,0.0,1.0,359.0,1.8,'11111222,11111222,11111222' 
TCOON,ioos:station:TCOON:006:1,2013-07-02T10:00:00Z,27.8217,-97.2040,0.0,0.0,20.0,0.3,'11111222,11111222,11111222' 
TCOON,ioos:station:TCOON:006:1,2013-07-02T11:00:00Z,27.8217,-97.2040,0.0,0.6,13.0,1.2,'11111222,11111222,11111222' 
TCOON,ioos:station:TCOON:006:1,2013-07-02T12:00:00Z,27.8217,-97.2040,0.0,1.5,340.0,2.2,'11111222,11111222,11111222' 
TCOON,ioos:station:TCOON:006:1,2013-07-02T13:00:00Z,27.8217,-97.2040,0.0,1.3,356.0,3.2,'11111222,11111222,11111222' 
TCOON,ioos:station:TCOON:006:1,2013-07-02T14:00:00Z,27.8217,-97.2040,0.0,2.2,337.0,3.3,'11111222,11111222,11111222' 
TCOON,ioos:station:TCOON:006:1,2013-07-02T15:00:00Z,27.8217,-97.2040,0.0,1.7,334.0,3.0,'11111222,11111222,11111222' 
TCOON,ioos:station:TCOON:006:1,2013-07-02T16:00:00Z,27.8217,-97.2040,0.0,1.9,317.0,4.6,'11111222,11111222,11111222' 
TCOON,ioos:station:TCOON:006:1,2013-07-02T17:00:00Z,27.8217,-97.2040,0.0,2.9,123.0,3.7,'11111222,11111222,11111222' 
TCOON,ioos:station:TCOON:006:1,2013-07-02T18:00:00Z,27.8217,-97.2040,0.0,3.1,169.0,3.9,'11111222,11111222,11111222' 
TCOON,ioos:station:TCOON:006:1,2013-07-02T19:00:00Z,27.8217,-97.2040,0.0,3.2,161.0,4.5,'11111222,11111222,11111222' 
TCOON,ioos:station:TCOON:006:1,2013-07-02T20:00:00Z,27.8217,-97.2040,0.0,4.3,130.0,5.3,'11111222,11111222,11111222' 
TCOON,ioos:station:TCOON:006:1,2013-07-02T21:00:00Z,27.8217,-97.2040,0.0,4.6,134.0,5.8,'11111222,11111222,11111222' 
TCOON,ioos:station:TCOON:006:1,2013-07-02T22:00:00Z,27.8217,-97.2040,0.0,4.7,154.0,6.4,'11111222,11111222,11111222' 
TCOON,ioos:station:TCOON:006:1,2013-07-02T23:00:00Z,27.8217,-97.2040,0.0,5.4,163.0,6.8,'11111222,11111222,11111222' 
TCOON,ioos:station:TCOON:006:1,2013-07-03T00:00:00Z,27.8217,-97.2040,0.0,7.3,172.0,8.2,'11111222,11111222,11111222' 
TCOON,ioos:station:TCOON:006:1,2013-07-03T01:00:00Z,27.8217,-97.2040,0.0,5.9,192.0,6.9,'11111222,11111222,11111222' 
TCOON,ioos:station:TCOON:006:1,2013-07-03T02:00:00Z,27.8217,-97.2040,0.0,5.4,183.0,6.5,'11111222,11111222,11111222' 
TCOON,ioos:station:TCOON:006:1,2013-07-03T03:00:00Z,27.8217,-97.2040,0.0,5.7,161.0,6.7,'11111222,11111222,11111222' 
TCOON,ioos:station:TCOON:006:1,2013-07-03T04:00:00Z,27.8217,-97.2040,0.0,4.5,184.0,5.9,'11111222,11111222,11111222' 
TCOON,ioos:station:TCOON:006:1,2013-07-03T05:00:00Z,27.8217,-97.2040,0.0,5.6,203.0,7.3,'11111222,11111222,11111222' 
TCOON,ioos:station:TCOON:006:1,2013-07-03T06:00:00Z,27.8217,-97.2040,0.0,4.7,207.0,6.0,'11111222,11111222,11111222' 
TCOON,ioos:station:TCOON:006:1,2013-07-03T07:00:00Z,27.8217,-97.2040,0.0,3.5,175.0,4.6,'11111222,11111222,11111222' 
TCOON,ioos:station:TCOON:006:1,2013-07-03T08:00:00Z,27.8217,-97.2040,0.0,4.6,201.0,6.1,'11111222,11111222,11111222' 
TCOON,ioos:station:TCOON:006:1,2013-07-03T09:00:00Z,27.8217,-97.2040,0.0,4.0,220.0,4.9,'11111222,11111222,11111222' 
TCOON,ioos:station:TCOON:006:1,2013-07-03T10:00:00Z,27.8217,-97.2040,0.0,1.0,271.0,2.1,'11111222,11111222,11111222' 
TCOON,ioos:station:TCOON:006:1,2013-07-03T11:00:00Z,27.8217,-97.2040,0.0,1.5,274.0,3.2,'11111222,11111222,11111222' 
TCOON,ioos:station:TCOON:006:1,2013-07-03T12:00:00Z,27.8217,-97.2040,0.0,2.1,279.0,3.5,'11111222,11111222,11111222' 
TCOON,ioos:station:TCOON:006:1,2013-07-03T13:00:00Z,27.8217,-97.2040,0.0,2.4,277.0,3.5,'11111222,11111222,11111222' 
TCOON,ioos:station:TCOON:006:1,2013-07-03T14:00:00Z,27.8217,-97.2040,0.0,1.4,277.0,2.6,'11111222,11111222,11111222' 
TCOON,ioos:station:TCOON:006:1,2013-07-03T15:00:00Z,27.8217,-97.2040,0.0,1.1,213.0,1.3,'11111222,11111222,11111222' 
TCOON,ioos:station:TCOON:006:1,2013-07-03T16:00:00Z,27.8217,-97.2040,0.0,2.7,174.0,4.0,'11111222,11111222,11111222' 
TCOON,ioos:station:TCOON:006:1,2013-07-03T17:00:00Z,27.8217,-97.2040,0.0,1.7,193.0,2.1,'11111222,11111222,11111222' 
TCOON,ioos:station:TCOON:006:1,2013-07-03T18:00:00Z,27.8217,-97.2040,0.0,3.3,156.0,3.9,'11111222,11111222,11111222' 
TCOON,ioos:station:TCOON:006:1,2013-07-03T19:00:00Z,27.8217,-97.2040,0.0,5.7,131.0,6.8,'11111222,11111222,11111222' 
TCOON,ioos:station:TCOON:006:1,2013-07-03T20:00:00Z,27.8217,-97.2040,0.0,5.6,131.0,7.0,'11111222,11111222,11111222' 
TCOON,ioos:station:TCOON:006:1,2013-07-03T21:00:00Z,27.8217,-97.2040,0.0,5.0,127.0,6.7,'11111222,11111222,11111222' 
TCOON,ioos:station:TCOON:006:1,2013-07-03T22:00:00Z,27.8217,-97.2040,0.0,5.8,130.0,7.5,'11111222,11111222,11111222' 
TCOON,ioos:station:TCOON:006:1,2013-07-03T23:00:00Z,27.8217,-97.2040,0.0,4.6,127.0,6.9,'11111222,11111222,11111222' 
TCOON,ioos:station:TCOON:006:1,2013-07-04T00:00:00Z,27.8217,-97.2040,0.0,4.3,125.0,5.9,'11111222,11111222,11111222' 
TCOON,ioos:station:TCOON:006:1,2013-07-04T01:00:00Z,27.8217,-97.2040,0.0,5.2,129.0,6.4,'11111222,11111222,11111222' 
TCOON,ioos:station:TCOON:006:1,2013-07-04T02:00:00Z,27.8217,-97.2040,0.0,3.2,134.0,6.2,'11111222,11111222,11111222' 
TCOON,ioos:station:TCOON:006:1,2013-07-04T03:00:00Z,27.8217,-97.2040,0.0,3.6,154.0,4.9,'11111222,11111222,11111222' 
TCOON,ioos:station:TCOON:006:1,2013-07-04T04:00:00Z,27.8217,-97.2040,0.0,3.3,161.0,4.2,'11111222,11111222,11111222' 
TCOON,ioos:station:TCOON:006:1,2013-07-04T05:00:00Z,27.8217,-97.2040,0.0,4.3,160.0,5.7,'11111222,11111222,11111222' 
TCOON,ioos:station:TCOON:006:1,2013-07-04T06:00:00Z,27.8217,-97.2040,0.0,3.8,160.0,4.6,'11111222,11111222,11111222' 
TCOON,ioos:station:TCOON:006:1,2013-07-04T07:00:00Z,27.8217,-97.2040,0.0,3.5,169.0,4.6,'11111222,11111222,11111222' 
TCOON,ioos:station:TCOON:006:1,2013-07-04T08:00:00Z,27.8217,-97.2040,0.0,2.8,172.0,3.8,'11111222,11111222,11111222' 
TCOON,ioos:station:TCOON:006:1,2013-07-04T09:00:00Z,27.8217,-97.2040,0.0,3.4,184.0,4.0,'11111222,11111222,11111222' 
TCOON,ioos:station:TCOON:006:1,2013-07-04T10:00:00Z,27.8217,-97.2040,0.0,2.0,182.0,2.3,'11111222,11111222,11111222' 
TCOON,ioos:station:TCOON:006:1,2013-07-04T11:00:00Z,27.8217,-97.2040,0.0,1.7,176.0,2.1,'11111222,11111222,11111222' 
TCOON,ioos:station:TCOON:006:1,2013-07-04T12:00:00Z,27.8217,-97.2040,0.0,1.3,206.0,1.8,'11111222,11111222,11111222' 
TCOON,ioos:station:TCOON:006:1,2013-07-04T13:00:00Z,27.8217,-97.2040,0.0,0.8,192.0,1.1,'11111222,11111222,11111222' 
TCOON,ioos:station:TCOON:006:1,2013-07-04T14:00:00Z,27.8217,-97.2040,0.0,0.9,115.0,1.3,'11111222,11111222,11111222' 
TCOON,ioos:station:TCOON:006:1,2013-07-04T15:00:00Z,27.8217,-97.2040,0.0,1.0,105.0,2.0,'11111222,11111222,11111222' 
TCOON,ioos:station:TCOON:006:1,2013-07-04T16:00:00Z,27.8217,-97.2040,0.0,2.2,125.0,2.7,'11111222,11111222,11111222' 
TCOON,ioos:station:TCOON:006:1,2013-07-04T17:00:00Z,27.8217,-97.2040,0.0,2.4,129.0,3.8,'11111222,11111222,11111222' 
TCOON,ioos:station:TCOON:006:1,2013-07-04T18:00:00Z,27.8217,-97.2040,0.0,3.2,128.0,4.0,'11111222,11111222,11111222' 
TCOON,ioos:station:TCOON:006:1,2013-07-04T19:00:00Z,27.8217,-97.2040,0.0,2.9,120.0,4.9,'11111222,11111222,11111222' 
TCOON,ioos:station:TCOON:006:1,2013-07-04T20:00:00Z,27.8217,-97.2040,0.0,3.4,120.0,4.6,'11111222,11111222,11111222' 
TCOON,ioos:station:TCOON:006:1,2013-07-04T21:00:00Z,27.8217,-97.2040,0.0,2.6,101.0,5.0,'11111222,11111222,11111222' 
TCOON,ioos:station:TCOON:006:1,2013-07-04T22:00:00Z,27.8217,-97.2040,0.0,4.5,117.0,6.1,'11111222,11111222,11111222' 
TCOON,ioos:station:TCOON:006:1,2013-07-04T23:00:00Z,27.8217,-97.2040,0.0,4.7,112.0,6.3,'11111222,11111222,11111222' 
TCOON,ioos:station:TCOON:006:1,2013-07-05T00:00:00Z,27.8217,-97.2040,0.0,4.1,120.0,7.0,'11111222,11111222,11111222' 
TCOON,ioos:station:TCOON:006:1,2013-07-05T01:00:00Z,27.8217,-97.2040,0.0,4.8,124.0,6.1,'11111222,11111222,11111222' 
TCOON,ioos:station:TCOON:006:1,2013-07-05T02:00:00Z,27.8217,-97.2040,0.0,4.2,125.0,5.0,'11111222,11111222,11111222' 
TCOON,ioos:station:TCOON:006:1,2013-07-05T03:00:00Z,27.8217,-97.2040,0.0,4.1,109.0,5.4,'11111222,11111222,11111222' 
TCOON,ioos:station:TCOON:006:1,2013-07-05T04:00:00Z,27.8217,-97.2040,0.0,3.2,112.0,4.7,'11111222,11111222,11111222' 
TCOON,ioos:station:TCOON:006:1,2013-07-05T05:00:00Z,27.8217,-97.2040,0.0,3.1,129.0,4.8,'11111222,11111222,11111222' 
TCOON,ioos:station:TCOON:006:1,2013-07-05T06:00:00Z,27.8217,-97.2040,0.0,1.6,118.0,3.7,'11111222,11111222,11111222' 
TCOON,ioos:station:TCOON:006:1,2013-07-05T07:00:00Z,27.8217,-97.2040,0.0,1.6,160.0,2.6,'11111222,11111222,11111222' 
TCOON,ioos:station:TCOON:006:1,2013-07-05T08:00:00Z,27.8217,-97.2040,0.0,1.7,172.0,2.4,'11111222,11111222,11111222' 
TCOON,ioos:station:TCOON:006:1,2013-07-05T09:00:00Z,27.8217,-97.2040,0.0,0.8,136.0,2.0,'11111222,11111222,11111222' 
TCOON,ioos:station:TCOON:006:1,2013-07-05T10:00:00Z,27.8217,-97.2040,0.0,1.2,165.0,2.0,'11111222,11111222,11111222' 
TCOON,ioos:station:TCOON:006:1,2013-07-05T11:00:00Z,27.8217,-97.2040,0.0,1.4,59.0,1.9,'11111222,11111222,11111222' 
TCOON,ioos:station:TCOON:006:1,2013-07-05T12:00:00Z,27.8217,-97.2040,0.0,2.0,78.0,2.6,'11111222,11111222,11111222' 
TCOON,ioos:station:TCOON:006:1,2013-07-05T13:00:00Z,27.8217,-97.2040,0.0,1.9,78.0,3.1,'11111222,11111222,11111222' 
TCOON,ioos:station:TCOON:006:1,2013-07-05T14:00:00Z,27.8217,-97.2040,0.0,2.0,185.0,2.4,'11111222,11111222,11111222' 
TCOON,ioos:station:TCOON:006:1,2013-07-05T15:00:00Z,27.8217,-97.2040,0.0,1.2,164.0,1.7,'11111222,11111222,11111222' 
TCOON,ioos:station:TCOON:006:1,2013-07-05T16:00:00Z,27.8217,-97.2040,0.0,1.6,162.0,2.4,'11111222,11111222,11111222' 
TCOON,ioos:station:TCOON:006:1,2013-07-05T17:00:00Z,27.8217,-97.2040,0.0,1.1,121.0,2.4,'11111222,11111222,11111222' 
TCOON,ioos:station:TCOON:006:1,2013-07-05T18:00:00Z,27.8217,-97.2040,0.0,3.9,88.0,5.8,'11111222,11111222,11111222' 
TCOON,ioos:station:TCOON:006:1,2013-07-05T19:00:00Z,27.8217,-97.2040,0.0,3.8,98.0,6.6,'11111222,11111222,11111222' 
TCOON,ioos:station:TCOON:006:1,2013-07-05T20:00:00Z,27.8217,-97.2040,0.0,2.9,89.0,5.1,'11111222,11111222,11111222' 
TCOON,ioos:station:TCOON:006:1,2013-07-05T21:00:00Z,27.8217,-97.2040,0.0,3.4,92.0,5.2,'11111222,11111222,11111222' 
TCOON,ioos:station:TCOON:006:1,2013-07-05T22:00:00Z,27.8217,-97.2040,0.0,2.7,89.0,4.7,'11111222,11111222,11111222' 
TCOON,ioos:station:TCOON:006:1,2013-07-05T23:00:00Z,27.8217,-97.2040,0.0,3.1,86.0,4.9,'11111222,11111222,11111222' 
TCOON,ioos:station:TCOON:006:1,2013-07-06T00:00:00Z,27.8217,-97.2040,0.0,4.2,83.0,6.5,'11111222,11111222,11111222' 
TCOON,ioos:station:TCOON:006:1,2013-07-06T01:00:00Z,27.8217,-97.2040,0.0,2.7,96.0,5.0,'11111222,11111222,11111222' 
TCOON,ioos:station:TCOON:006:1,2013-07-06T02:00:00Z,27.8217,-97.2040,0.0,2.8,97.0,5.8,'11111222,11111222,11111222' 
TCOON,ioos:station:TCOON:006:1,2013-07-06T03:00:00Z,27.8217,-97.2040,0.0,2.7,108.0,4.5,'11111222,11111222,11111222' 
TCOON,ioos:station:TCOON:006:1,2013-07-06T04:00:00Z,27.8217,-97.2040,0.0,1.2,149.0,2.9,'11111222,11111222,11111222' 
TCOON,ioos:station:TCOON:006:1,2013-07-06T05:00:00Z,27.8217,-97.2040,0.0,2.4,163.0,3.3,'11111222,11111222,11111222' 
TCOON,ioos:station:TCOON:006:1,2013-07-06T06:00:00Z,27.8217,-97.2040,0.0,1.2,162.0,1.9,'11111222,11111222,11111222' 
TCOON,ioos:station:TCOON:006:1,2013-07-06T07:00:00Z,27.8217,-97.2040,0.0,1.5,159.0,2.6,'11111222,11111222,11111222' 
TCOON,ioos:station:TCOON:006:1,2013-07-06T08:00:00Z,27.8217,-97.2040,0.0,1.0,165.0,2.0,'11111222,11111222,11111222' 
TCOON,ioos:station:TCOON:006:1,2013-07-06T09:00:00Z,27.8217,-97.2040,0.0,1.0,70.0,1.5,'11111222,11111222,11111222' 
TCOON,ioos:station:TCOON:006:1,2013-07-06T10:00:00Z,27.8217,-97.2040,0.0,0.7,358.0,1.2,'11111222,11111222,11111222' 
TCOON,ioos:station:TCOON:006:1,2013-07-06T11:00:00Z,27.8217,-97.2040,0.0,0.9,30.0,1.4,'11111222,11111222,11111222' 
TCOON,ioos:station:TCOON:006:1,2013-07-06T12:00:00Z,27.8217,-97.2040,0.0,2.1,62.0,4.2,'11111222,11111222,11111222' 
TCOON,ioos:station:TCOON:006:1,2013-07-06T13:00:00Z,27.8217,-97.2040,0.0,3.1,75.0,4.4,'11111222,11111222,11111222' 
TCOON,ioos:station:TCOON:006:1,2013-07-06T14:00:00Z,27.8217,-97.2040,0.0,4.5,49.0,5.5,'11111222,11111222,11111222' 
TCOON,ioos:station:TCOON:006:1,2013-07-06T15:00:00Z,27.8217,-97.2040,0.0,3.7,74.0,5.3,'11111222,11111222,11111222' 
TCOON,ioos:station:TCOON:006:1,2013-07-06T16:00:00Z,27.8217,-97.2040,0.0,4.4,75.0,6.1,'11111222,11111222,11111222' 
TCOON,ioos:station:TCOON:006:1,2013-07-06T17:00:00Z,27.8217,-97.2040,0.0,4.6,80.0,6.2,'11111222,11111222,11111222' 
TCOON,ioos:station:TCOON:006:1,2013-07-06T18:00:00Z,27.8217,-97.2040,0.0,4.4,75.0,7.0,'11111222,11111222,11111222' 
TCOON,ioos:station:TCOON:006:1,2013-07-06T19:00:00Z,27.8217,-97.2040,0.0,5.3,80.0,7.4,'11111222,11111222,11111222' 
TCOON,ioos:station:TCOON:006:1,2013-07-06T20:00:00Z,27.8217,-97.2040,0.0,4.9,92.0,7.2,'11111222,11111222,11111222' 
TCOON,ioos:station:TCOON:006:1,2013-07-06T21:00:00Z,27.8217,-97.2040,0.0,5.0,88.0,6.8,'11111222,11111222,11111222' 
TCOON,ioos:station:TCOON:006:1,2013-07-06T22:00:00Z,27.8217,-97.2040,0.0,3.2,104.0,5.5,'11111222,11111222,11111222' 
TCOON,ioos:station:TCOON:006:1,2013-07-06T23:00:00Z,27.8217,-97.2040,0.0,3.1,101.0,5.3,'11111222,11111222,11111222' 
TCOON,ioos:station:TCOON:006:1,2013-07-07T00:00:00Z,27.8217,-97.2040,0.0,4.1,120.0,6.2,'11111222,11111222,11111222' 
TCOON,ioos:station:TCOON:006:1,2013-07-07T01:00:00Z,27.8217,-97.2040,0.0,3.0,142.0,5.4,'11111222,11111222,11111222' 
TCOON,ioos:station:TCOON:006:1,2013-07-07T02:00:00Z,27.8217,-97.2040,0.0,3.7,146.0,5.8,'11111222,11111222,11111222' 
TCOON,ioos:station:TCOON:006:1,2013-07-07T03:00:00Z,27.8217,-97.2040,0.0,5.4,168.0,6.3,'11111222,11111222,11111222' 
TCOON,ioos:station:TCOON:006:1,2013-07-07T04:00:00Z,27.8217,-97.2040,0.0,3.5,184.0,4.5,'11111222,11111222,11111222' 
TCOON,ioos:station:TCOON:006:1,2013-07-07T05:00:00Z,27.8217,-97.2040,0.0,3.6,172.0,4.3,'11111222,11111222,11111222' 
TCOON,ioos:station:TCOON:006:1,2013-07-07T06:00:00Z,27.8217,-97.2040,0.0,3.9,167.0,5.0,'11111222,11111222,11111222' 
TCOON,ioos:station:TCOON:006:1,2013-07-07T07:00:00Z,27.8217,-97.2040,0.0,4.6,166.0,6.0,'11111222,11111222,11111222' 
TCOON,ioos:station:TCOON:006:1,2013-07-07T08:00:00Z,27.8217,-97.2040,0.0,4.9,163.0,6.4,'11111222,11111222,11111222' 
TCOON,ioos:station:TCOON:006:1,2013-07-07T09:00:00Z,27.8217,-97.2040,0.0,4.0,170.0,4.9,'11111222,11111222,11111222' 
TCOON,ioos:station:TCOON:006:1,2013-07-07T10:00:00Z,27.8217,-97.2040,0.0,3.4,167.0,4.3,'11111222,11111222,11111222' 
TCOON,ioos:station:TCOON:006:1,2013-07-07T11:00:00Z,27.8217,-97.2040,0.0,3.4,170.0,3.9,'11111222,11111222,11111222' 
TCOON,ioos:station:TCOON:006:1,2013-07-07T12:00:00Z,27.8217,-97.2040,0.0,3.8,186.0,4.7,'11111222,11111222,11111222' 
TCOON,ioos:station:TCOON:006:1,2013-07-07T13:00:00Z,27.8217,-97.2040,0.0,1.5,182.0,2.8,'11111222,11111222,11111222' 
TCOON,ioos:station:TCOON:006:1,2013-07-07T14:00:00Z,27.8217,-97.2040,0.0,1.4,112.0,3.0,'11111222,11111222,11111222' 
TCOON,ioos:station:TCOON:006:1,2013-07-07T15:00:00Z,27.8217,-97.2040,0.0,0.8,115.0,2.5,'11111222,11111222,11111222' 
TCOON,ioos:station:TCOON:006:1,2013-07-07T16:00:00Z,27.8217,-97.2040,0.0,1.7,150.0,3.8,'11111222,11111222,11111222' 
TCOON,ioos:station:TCOON:006:1,2013-07-07T17:00:00Z,27.8217,-97.2040,0.0,1.7,119.0,4.6,'11111222,11111222,11111222' 
TCOON,ioos:station:TCOON:006:1,2013-07-07T18:00:00Z,27.8217,-97.2040,0.0,3.5,181.0,5.1,'11111222,11111222,11111222' 
TCOON,ioos:station:TCOON:006:1,2013-07-07T19:00:00Z,27.8217,-97.2040,0.0,5.0,181.0,6.9,'11111222,11111222,11111222' 
TCOON,ioos:station:TCOON:006:1,2013-07-07T20:00:00Z,27.8217,-97.2040,0.0,1.4,123.0,4.9,'11111222,11111222,11111222' 
TCOON,ioos:station:TCOON:006:1,2013-07-07T21:00:00Z,27.8217,-97.2040,0.0,5.1,180.0,9.0,'11111222,11111222,11111222' 
TCOON,ioos:station:TCOON:006:1,2013-07-07T22:00:00Z,27.8217,-97.2040,0.0,4.9,179.0,8.8,'11111222,11111222,11111222' 
TCOON,ioos:station:TCOON:006:1,2013-07-07T23:00:00Z,27.8217,-97.2040,0.0,5.1,173.0,6.6,'11111222,11111222,11111222' 
TCOON,ioos:station:TCOON:006:1,2013-07-08T00:00:00Z,27.8217,-97.2040,0.0,5.7,170.0,7.4,'11111222,11111222,11111222' 
TCOON,ioos:station:TCOON:006:1,2013-07-08T01:00:00Z,27.8217,-97.2040,0.0,5.2,165.0,6.8,'11111222,11111222,11111222' 
TCOON,ioos:station:TCOON:006:1,2013-07-08T02:00:00Z,27.8217,-97.2040,0.0,4.6,168.0,5.7,'11111222,11111222,11111222' 
TCOON,ioos:station:TCOON:006:1,2013-07-08T03:00:00Z,27.8217,-97.2040,0.0,4.4,179.0,7.3,'11111222,11111222,11111222' 
TCOON,ioos:station:TCOON:006:1,2013-07-08T04:00:00Z,27.8217,-97.2040,0.0,4.0,182.0,5.5,'11111222,11111222,11111222' 
TCOON,ioos:station:TCOON:006:1,2013-07-08T05:00:00Z,27.8217,-97.2040,0.0,4.9,178.0,6.9,'11111222,11111222,11111222' 
TCOON,ioos:station:TCOON:006:1,2013-07-08T06:00:00Z,27.8217,-97.2040,0.0,5.8,174.0,7.9,'11111222,11111222,11111222' 
TCOON,ioos:station:TCOON:006:1,2013-07-08T07:00:00Z,27.8217,-97.2040,0.0,5.4,172.0,8.0,'11111222,11111222,11111222' 
TCOON,ioos:station:TCOON:006:1,2013-07-08T08:00:00Z,27.8217,-97.2040,0.0,5.1,175.0,6.7,'11111222,11111222,11111222' 
TCOON,ioos:station:TCOON:006:1,2013-07-08T09:00:00Z,27.8217,-97.2040,0.0,5.9,167.0,8.7,'11111222,11111222,11111222' 
TCOON,ioos:station:TCOON:006:1,2013-07-08T10:00:00Z,27.8217,-97.2040,0.0,4.1,173.0,4.8,'11111222,11111222,11111222' 
TCOON,ioos:station:TCOON:006:1,2013-07-08T11:00:00Z,27.8217,-97.2040,0.0,1.3,171.0,3.4,'11111222,11111222,11111222' 
TCOON,ioos:station:TCOON:006:1,2013-07-08T12:00:00Z,27.8217,-97.2040,0.0,1.3,142.0,3.2,'11111222,11111222,11111222' 
TCOON,ioos:station:TCOON:006:1,2013-07-08T13:00:00Z,27.8217,-97.2040,0.0,3.6,175.0,5.9,'11111222,11111222,11111222' 
TCOON,ioos:station:TCOON:006:1,2013-07-08T14:00:00Z,27.8217,-97.2040,0.0,3.1,179.0,5.8,'11111222,11111222,11111222' 
TCOON,ioos:station:TCOON:006:1,2013-07-08T15:00:00Z,27.8217,-97.2040,0.0,3.0,162.0,5.0,'11111222,11111222,11111222' 
TCOON,ioos:station:TCOON:006:1,2013-07-08T16:00:00Z,27.8217,-97.2040,0.0,3.0,118.0,5.9,'11111222,11111222,11111222' 
TCOON,ioos:station:TCOON:006:1,2013-07-08T17:00:00Z,27.8217,-97.2040,0.0,2.7,116.0,5.5,'11111222,11111222,11111222' 
TCOON,ioos:station:TCOON:006:1,2013-07-08T18:00:00Z,27.8217,-97.2040,0.0,2.3,144.0,4.7,'11111222,11111222,11111222' 
TCOON,ioos:station:TCOON:006:1,2013-07-08T19:00:00Z,27.8217,-97.2040,0.0,2.8,138.0,5.5,'11111222,11111222,11111222' 
TCOON,ioos:station:TCOON:006:1,2013-07-08T20:00:00Z,27.8217,-97.2040,0.0,3.1,129.0,6.3,'11111222,11111222,11111222' 
TCOON,ioos:station:TCOON:006:1,2013-07-08T21:00:00Z,27.8217,-97.2040,0.0,2.5,136.0,5.8,'11111222,11111222,11111222' 
TCOON,ioos:station:TCOON:006:1,2013-07-08T22:00:00Z,27.8217,-97.2040,0.0,5.4,111.0,7.1,'11111222,11111222,11111222' 
TCOON,ioos:station:TCOON:006:1,2013-07-08T23:00:00Z,27.8217,-97.2040,0.0,2.5,139.0,5.6,'11111222,11111222,11111222' 
TCOON,ioos:station:TCOON:006:1,2013-07-09T00:00:00Z,27.8217,-97.2040,0.0,5.3,128.0,7.0,'11111222,11111222,11111222' 
TCOON,ioos:station:TCOON:006:1,2013-07-09T01:00:00Z,27.8217,-97.2040,0.0,6.5,129.0,8.4,'11111222,11111222,11111222' 
TCOON,ioos:station:TCOON:006:1,2013-07-09T02:00:00Z,27.8217,-97.2040,0.0,5.8,131.0,7.7,'11111222,11111222,11111222' 
TCOON,ioos:station:TCOON:006:1,2013-07-09T03:00:00Z,27.8217,-97.2040,0.0,4.9,124.0,6.6,'11111222,11111222,11111222' 
TCOON,ioos:station:TCOON:006:1,2013-07-09T04:00:00Z,27.8217,-97.2040,0.0,5.0,127.0,6.7,'11111222,11111222,11111222' 
TCOON,ioos:station:TCOON:006:1,2013-07-09T05:00:00Z,27.8217,-97.2040,0.0,5.3,131.0,6.6,'11111222,11111222,11111222' 
TCOON,ioos:station:TCOON:006:1,2013-07-09T06:00:00Z,27.8217,-97.2040,0.0,4.6,140.0,6.2,'11111222,11111222,11111222' 
TCOON,ioos:station:TCOON:006:1,2013-07-09T07:00:00Z,27.8217,-97.2040,0.0,3.8,150.0,5.1,'11111222,11111222,11111222' 
TCOON,ioos:station:TCOON:006:1,2013-07-09T08:00:00Z,27.8217,-97.2040,0.0,3.0,138.0,4.7,'11111222,11111222,11111222' 
TCOON,ioos:station:TCOON:006:1,2013-07-09T09:00:00Z,27.8217,-97.2040,0.0,2.8,144.0,4.1,'11111222,11111222,11111222' 
TCOON,ioos:station:TCOON:006:1,2013-07-09T10:00:00Z,27.8217,-97.2040,0.0,2.6,134.0,3.8,'11111222,11111222,11111222' 
TCOON,ioos:station:TCOON:006:1,2013-07-09T11:00:00Z,27.8217,-97.2040,0.0,2.4,132.0,3.4,'11111222,11111222,11111222' 